Regional Weather Roundup
Issued by NWS Goodland, KS

Home | Current Version | Previous Version | Text Only | Print | Product List | Glossary On
Versions: 1 2 3 4 5 6 7 8 9 10 11 12 13 14 15 16 17 18 19 20 21 22 23 24 25 26 27 28 29 30 31 32 33 34 35 36 37 38 39 40 41 42 43 44 45 46 47 48 49 50
000
ASUS43 KGLD 262359
RWRGLD

GOODLAND FORECAST AREA HOURLY WEATHER ROUNDUP
NATIONAL WEATHER SERVICE GOODLAND KS
600 PM MDT FRI AUG 26 2016

...OFFICIAL OBSERVATIONS...

CITY           SKY/WX    TMP DP  RH WIND       PRES   REMARKS
GOODLAND KS    CLOUDY    69  62  78 SE6       30.03R
HILL CITY KS   SUNNY     74  63  68 E10       30.00F
IMPERIAL NEB   CLOUDY    60  57  89 E8        30.05S
MCCOOK NEB     CLOUDY    67  62  84 N13       30.03R
AKRON CO       SUNNY     70  50  49 NE16      30.08R
BURLINGTON CO  CLOUDY    72  53  51 SE20      30.04R
LIMON CO       CLOUDY    73  48  41 S12G18    30.08S
$$

...UNOFFICIAL OBSERVATIONS...

CITY           SKY/WX    TMP DP  RH WIND       PRES   REMARKS
COLBY KS       PTSUNNY   73  63  68 SE10      30.03R
LENORA KS        N/A     71  32  23 MISG        N/A
NORTON KS      MOSUNNY   73  55  53 E5        30.00S
SHARON SPRINGS   N/A     77  58  52 SE8G16      N/A
TRENTON NEB      N/A     61  32  33 MISG        N/A
KIT CARSON CO    N/A     83  50  31 MISG        N/A
YUMA CO          N/A     64  56  75 NE12        N/A
$$




USA.gov is the U.S. government's official web portal to all federal, state and local government web resources and services.